EW7762 Weather Reports


time (UTC)temp
C
wind
direction
speed
KPH
gust
KPH
rain 1hr
cm
rain 24hr
cm
rain mn
cm
humidity
%
barometer
mb
20260906212928 32 55 8.0 14.5 0.00 0.00 0.00 41 1014.9
20260906212428 32 101 11.3 14.5 0.00 0.00 0.00 40 1015.0
20260906211928 32 99 3.2 8.0 0.00 0.00 0.00 43 1014.9
20260906211428 32 73 3.2 4.8 0.00 0.00 0.00 41 1015.0
20260906210929 32 73 3.2 6.4 0.00 0.00 0.00 41 1014.9
20260906210428 32 73 3.2 6.4 0.00 0.00 0.00 41 1015.1
20260906205427 31 152 0.0 1.6 0.00 0.00 0.00 40 1015.2
20260906204926 31 152 0.0 1.6 0.00 0.00 0.00 40 1015.4
20260906203916 -17 0.0 0.0 0.00 0.00 0.00 1015.6
20260906203342 -17 0.0 0.0 0.00 0.00 0.00 1015.3
20260906202831 -17 0.0 0.0 0.00 0.00 0.00 1015.4
20260906202318 30 31 3.2 3.2 0.00 0.00 0.00 47 1015.3
20260906201812 30 31 3.2 3.2 0.00 0.00 0.00 47 1015.7
20260906201308 30 31 3.2 9.7 0.00 0.00 0.00 47 1015.6
20260906200756 30 31 3.2 9.7 0.00 0.00 0.00 47 1015.9
20260906200249 30 57 9.7 9.7 0.00 0.00 0.00 46 1015.9
20260906195748 30 57 9.7 9.7 0.00 0.00 0.00 46 1016.0
20260906195248 30 141 3.2 8.0 0.00 0.00 0.00 47 1016.1
20260906194745 30 141 3.2 14.5 0.00 0.00 0.00 47 1015.6
20260906194244 30 72 3.2 14.5 0.00 0.00 0.00 49 1015.8
20260906193744 30 32 4.8 17.7 0.00 0.00 0.00 47 1015.9
20260906193243 30 71 4.8 17.7 0.00 0.00 0.00 46 1015.9
20260906192744 29 71 3.2 11.3 0.00 0.00 0.00 50 1015.9
20260906192244 29 212 0.0 11.3 0.00 0.00 0.00 48 1016.1
20260906191743 29 88 1.6 9.7 0.00 0.00 0.00 51 1016.3
20260906191243 29 122 6.4 9.7 0.00 0.00 0.00 50 1016.3
20260906190744 29 103 3.2 9.7 0.00 0.00 0.00 48 1016.3
20260906190244 29 107 4.8 12.9 0.00 0.00 0.00 49 1016.6
20260906185243 28 171 4.8 9.7 0.00 0.00 0.00 51 1017.0
20260906183744 28 137 6.4 12.9 0.00 0.00 0.00 49 1017.5
20260906183244 28 25 3.2 12.9 0.00 0.00 0.00 51 1017.3
20260906182743 28 62 4.8 11.3 0.00 0.00 0.00 49 1017.6
20260906181743 28 129 3.2 12.9 0.00 0.00 0.00 52 1017.8
20260906181243 27 348 1.6 12.9 0.00 0.00 0.00 59 1017.6
20260906180745 27 52 6.4 12.9 0.00 0.00 0.00 52 1017.5
20260906180245 27 349 3.2 9.7 0.00 0.00 0.00 53 1018.0
20260906175745 27 4 3.2 12.9 0.00 0.00 0.00 58 1018.1
20260906175244 27 19 8.0 12.9 0.00 0.00 0.00 55 1017.8
20260906174745 27 36 6.4 9.7 0.00 0.00 0.00 55 1018.1
20260906174244 27 312 6.4 8.0 0.00 0.00 0.00 56 1018.2
20260906173745 27 41 4.8 6.4 0.00 0.00 0.00 55 1018.3
20260906172750 26 37 8.0 9.7 0.00 0.00 0.00 56 1018.6
20260906172245 26 122 3.2 8.0 0.00 0.00 0.00 58 1018.6
20260906171745 26 8 3.2 6.4 0.00 0.00 0.00 58 1018.8
20260906171245 26 341 1.6 6.4 0.00 0.00 0.00 58 1018.9
20260906170745 26 165 0.0 4.8 0.00 0.00 0.00 56 1018.7
20260906170245 26 134 0.0 6.4 0.00 0.00 0.00 59 1018.8
20260906165745 25 74 6.4 6.4 0.00 0.00 0.00 59 1018.8
20260906164744 25 97 3.2 9.7 0.00 0.00 0.00 62 1018.9
20260906164245 25 12 3.2 12.9 0.00 0.00 0.00 61 1018.8
20260906162745 23 52 6.4 12.9 0.00 0.00 0.00 61 1018.8
20260906161745 24 346 3.2 9.7 0.00 0.00 0.00 60 1018.9
20260906161244 24 352 1.6 8.0 0.00 0.00 0.00 63 1019.1
20260906160245 23 50 6.4 11.3 0.00 0.00 0.00 64 1018.9
20260906155245 22 324 3.2 9.7 0.00 0.00 0.00 66 1019.1
20260906154745 22 350 4.8 11.3 0.00 0.00 0.00 64 1018.8
20260906154245 23 41 6.4 11.3 0.00 0.00 0.00 62 1019.1
20260906153745 22 349 3.2 11.3 0.00 0.00 0.00 65 1019.0
20260906153243 22 9 6.4 6.4 0.00 0.00 0.00 65 1019.1
20260906152743 22 0 1.6 4.8 0.00 0.00 0.00 64 1019.4
20260906152243 22 338 4.8 8.0 0.00 0.00 0.00 67 1019.1
20260906151744 22 332 0.0 8.0 0.00 0.00 0.00 66 1019.3
20260906151245 21 12 6.4 11.3 0.00 0.00 0.00 68 1019.1
20260906150744 21 12 6.4 11.3 0.00 0.00 0.00 68 1019.4
20260906150244 21 319 3.2 6.4 0.00 0.00 0.00 67 1019.4
20260906145745 21 0 3.2 6.4 0.00 0.00 0.00 69 1019.6
20260906145245 21 353 3.2 4.8 0.00 0.00 0.00 67 1019.7
20260906144244 20 8 4.8 6.4 0.00 0.00 0.00 69 1019.4
20260906142244 19 24 4.8 6.4 0.00 0.00 0.00 71 1019.1
20260906141743 19 17 4.8 8.0 0.00 0.00 0.00 72 1019.3
20260906140744 -17 0.0 0.0 0.00 0.00 0.00 1019.4
20260906140245 -17 0.0 0.0 0.00 0.00 0.00 1019.4
20260906135744 -17 0.0 0.0 0.00 0.00 0.00 1019.0
20260906135244 -17 0.0 0.0 0.00 0.00 0.00 1019.3
20260906133731 -17 0.0 0.0 0.00 0.00 0.00 1019.0
20260906133231 -17 0.0 0.0 0.00 0.00 0.00 1019.1
20260906132731 -17 0.0 0.0 0.00 0.00 0.00 1018.8
20260906132232 -17 0.0 0.0 0.00 0.00 0.00 1018.9
20260906131732 -17 0.0 0.0 0.00 0.00 0.00 1019.0
20260906130232 -17 0.0 0.0 0.00 0.00 0.00 1019.0
20260906125732 -17 0.0 0.0 0.00 0.00 0.00 1019.0
20260906125233 -17 0.0 0.0 0.00 0.00 0.00 1018.8
20260906124733 -17 0.0 0.0 0.00 0.00 0.00 1018.7
20260906123732 -17 0.0 0.0 0.00 0.00 0.00 1018.8
20260906123232 -17 0.0 0.0 0.00 0.00 0.00 1018.9
20260906122732 -17 0.0 0.0 0.00 0.00 0.00 1018.8
20260906122232 -17 0.0 0.0 0.00 0.00 0.00 1018.8
20260906121232 -17 0.0 0.0 0.00 0.00 0.00 1018.8
20260906120732 -17 0.0 0.0 0.00 0.00 0.00 1018.9
20260906120232 -17 0.0 0.0 0.00 0.00 0.00 1018.7
20260906115733 -17 0.0 0.0 0.00 0.00 0.00 1018.8
20260906115156 -17 0.0 0.0 0.00 0.00 0.00 1018.7
20260906114644 -17 0.0 0.0 0.00 0.00 0.00 1018.5
20260906114144 -17 0.0 0.0 0.00 0.00 0.00 1018.8
20260906113644 -17 0.0 0.0 0.00 0.00 0.00 1018.7
20260906113146 -17 0.0 0.0 0.00 0.00 0.00 1018.7
20260906112643 -17 0.0 0.0 0.00 0.00 0.00 1018.6
20260906111644 -17 0.0 0.0 0.00 0.00 0.00 1018.7
20260906111143 -17 0.0 0.0 0.00 0.00 0.00 1018.5
20260906110644 -17 0.0 0.0 0.00 0.00 0.00 1018.6
20260906110131 -17 0.0 0.0 0.00 0.00 0.00 1018.2
20260906105631 -17 0.0 0.0 0.00 0.00 0.00 1018.1
20260906105131 -17 0.0 0.0 0.00 0.00 0.00 1018.6
20260906104632 -17 0.0 0.0 0.00 0.00 0.00 1018.3
20260906104131 -17 0.0 0.0 0.00 0.00 0.00 1018.5
20260906103630 -17 0.0 0.0 0.00 0.00 0.00 1018.3
20260906101631 -17 0.0 0.0 0.00 0.00 0.00 1018.5
20260906100630 -17 0.0 0.0 0.00 0.00 0.00 1018.6
20260906100130 -17 0.0 0.0 0.00 0.00 0.00 1018.7
20260906095631 -17 0.0 0.0 0.00 0.00 0.00 1018.6
20260906094631 -17 0.0 0.0 0.00 0.00 0.00 1018.1
20260906094132 -17 0.0 0.0 0.00 0.00 0.00 1018.2
20260906093632 -17 0.0 0.0 0.00 0.00 0.00 1018.3
20260906093132 -17 0.0 0.0 0.00 0.00 0.00 1018.1
20260906092632 -17 0.0 0.0 0.00 0.00 0.00 1018.0
20260906091632 -17 0.0 0.0 0.00 0.00 0.00 1017.8
20260906091132 -17 0.0 0.0 0.00 0.00 0.00 1018.1
20260906090632 -17 0.0 0.0 0.00 0.00 0.00 1017.8
20260906090131 -17 0.0 0.0 0.00 0.00 0.00 1017.8
20260906085631 -17 0.0 0.0 0.00 0.00 0.00 1017.6
20260906085118 -17 0.0 0.0 0.00 0.00 0.00 1017.8
20260906084543 -17 0.0 0.0 0.00 0.00 0.00 1017.8
20260906084030 -17 0.0 0.0 0.00 0.00 0.00 1017.6
20260906083517 -17 0.0 0.0 0.00 0.00 0.00 1017.9
20260906082943 -17 0.0 0.0 0.00 0.00 0.00 1017.9
20260906082439 -17 0.0 0.0 0.00 0.00 0.00 1018.0
20260906081931 -17 0.0 0.0 0.00 0.00 0.00 1018.0
20260906081429 -17 0.0 0.0 0.00 0.00 0.00 1017.8
20260906080932 -17 0.0 0.0 0.00 0.00 0.00 1017.9
20260906080429 -17 0.0 0.0 0.00 0.00 0.00 1017.9
20260906075928 -17 0.0 0.0 0.00 0.00 0.00 1017.9
20260906075425 -17 0.0 0.0 0.00 0.00 0.00 1018.0
20260906074929 -17 0.0 0.0 0.00 0.00 0.00 1017.8
20260906074425 -17 0.0 0.0 0.00 0.00 0.00 1017.8
20260906073927 -17 0.0 0.0 0.00 0.00 0.00 1018.1
20260906073426 -17 0.0 0.0 0.00 0.00 0.00 1017.8
20260906072925 -17 0.0 0.0 0.00 0.00 0.00 1018.0
20260906072425 -17 0.0 0.0 0.00 0.00 0.00 1017.9
20260906071925 -17 0.0 0.0 0.00 0.00 0.00 1018.2
20260906070924 -17 0.0 0.0 0.00 0.00 0.00 1018.1
20260906070421 -17 0.0 0.0 0.00 0.00 0.00 1017.9
20260906065421 -17 0.0 0.0 0.00 0.00 0.00 1018.1
20260906064922 -17 0.0 0.0 0.00 0.00 0.00 1018.0
20260906064421 -17 0.0 0.0 0.00 0.00 0.00 1018.0
20260906063922 -17 0.0 0.0 0.00 0.00 0.00 1018.1
20260906063420 -17 0.0 0.0 0.00 0.00 0.00 1017.9
20260906062921 -17 0.0 0.0 0.00 0.00 0.00 1018.1
20260906062355 -17 0.0 0.0 0.00 0.00 0.00 1018.3
20260906061851 -17 0.0 0.0 0.00 0.00 0.00 1018.2
20260906061328 -17 0.0 0.0 0.00 0.00 0.00 1018.0
20260906060828 -17 0.0 0.0 0.00 0.00 0.00 1017.9
20260906060328 -17 0.0 0.0 0.00 0.00 0.00 1017.5
20260906055826 -17 0.0 0.0 0.00 0.00 0.00 1017.4
20260906055325 -17 0.0 0.0 0.00 0.00 0.00 1017.8
20260906054826 -17 0.0 0.0 0.00 0.00 0.00 1017.5
20260906054326 -17 0.0 0.0 0.00 0.00 0.00 1017.9
20260906053804 -17 0.0 0.0 0.00 0.00 0.00 1017.8
20260906053253 -17 0.0 0.0 0.00 0.00 0.00 1017.8
20260906052752 -17 0.0 0.0 0.00 0.00 0.00 1017.8
20260906052252 -17 0.0 0.0 0.00 0.00 0.00 1017.8
20260906051751 -17 0.0 0.0 0.00 0.00 0.00 1017.5
20260906051237 -17 0.0 0.0 0.00 0.00 0.00 1017.4
20260906050738 -17 0.0 0.0 0.00 0.00 0.00 1017.3
20260906045238 -17 0.0 0.0 0.00 0.00 0.00 1017.4
20260906044726 -17 0.0 0.0 0.00 0.00 0.00 1017.1
20260906044226 -17 0.0 0.0 0.00 0.00 0.00 1017.2
20260906043724 -17 0.0 0.0 0.00 0.00 0.00 1017.1
20260906043224 -17 0.0 0.0 0.00 0.00 0.00 1017.0
20260906042725 -17 0.0 0.0 0.00 0.00 0.00 1017.0
20260906042224 -17 0.0 0.0 0.00 0.00 0.00 1017.0
20260906041725 -17 0.0 0.0 0.00 0.00 0.00 1017.0
20260906041223 -17 0.0 0.0 0.00 0.00 0.00 1016.8
20260906040722 -17 0.0 0.0 0.00 0.00 0.00 1016.7
20260906040221 -17 0.0 0.0 0.00 0.00 0.00 1016.6
20260906035722 -17 0.0 0.0 0.00 0.00 0.00 1016.8
20260906035222 22 19 4.8 4.8 0.00 0.00 0.00 46 1016.7
20260906034719 22 19 4.8 4.8 0.00 0.00 0.00 46 1017.0
20260906034222 22 19 4.8 4.8 0.00 0.00 0.00 46 1016.8
20260906033719 22 19 4.8 4.8 0.00 0.00 0.00 46 1016.6
20260906033219 -17 0.0 0.0 0.00 0.00 0.00 1016.6
20260906032655 -17 0.0 0.0 0.00 0.00 0.00 1016.4
20260906032142 -17 0.0 0.0 0.00 0.00 0.00 1016.4
20260906031104 -17 0.0 0.0 0.00 0.00 0.00 1016.5
20260906030605 -17 0.0 0.0 0.00 0.00 0.00 1016.3
20260906030105 -17 0.0 0.0 0.00 0.00 0.00 1016.4
20260906025548 -17 0.0 0.0 0.00 0.00 0.00 1016.1
20260906025047 -17 0.0 0.0 0.00 0.00 0.00 1016.7
20260906024536 -17 0.0 0.0 0.00 0.00 0.00 1016.4
20260906024035 -17 0.0 0.0 0.00 0.00 0.00 1016.4
20260906023536 -17 0.0 0.0 0.00 0.00 0.00 1016.1
20260906023037 -17 0.0 0.0 0.00 0.00 0.00 1016.4
20260906022536 -17 0.0 0.0 0.00 0.00 0.00 1015.9
20260906022037 -17 0.0 0.0 0.00 0.00 0.00 1016.4
20260906021537 -17 0.0 0.0 0.00 0.00 0.00 1016.1
20260906021035 -17 0.0 0.0 0.00 0.00 0.00 1015.9
20260906020524 -17 0.0 0.0 0.00 0.00 0.00 1015.9
20260906020023 -17 0.0 0.0 0.00 0.00 0.00 1016.0
20260906015523 -17 0.0 0.0 0.00 0.00 0.00 1015.8
20260906015023 -17 0.0 0.0 0.00 0.00 0.00 1015.8
20260906014522 -17 0.0 0.0 0.00 0.00 0.00 1015.8
20260906014024 -17 0.0 0.0 0.00 0.00 0.00 1015.7
20260906013522 -17 0.0 0.0 0.00 0.00 0.00 1015.6
20260906013024 -17 0.0 0.0 0.00 0.00 0.00 1015.8
20260906012522 -17 0.0 0.0 0.00 0.00 0.00 1015.4
20260906012022 -17 0.0 0.0 0.00 0.00 0.00 1015.7
20260906011518 -17 0.0 0.0 0.00 0.00 0.00 1015.7
20260906010841 -17 0.0 0.0 0.00 0.00 0.00 1015.7
20260906010341 -17 0.0 0.0 0.00 0.00 0.00 1015.6
20260906005840 -17 0.0 0.0 0.00 0.00 0.00 1015.6
20260906005340 -17 0.0 0.0 0.00 0.00 0.00 1015.7
20260906004840 29 312 12.9 17.7 0.00 0.00 0.00 32 1015.4
20260906003841 29 312 12.9 17.7 0.00 0.00 0.00 32 1015.6
20260906003340 29 312 12.9 17.7 0.00 0.00 0.00 32 1015.6
20260906002839 31 290 16.1 17.7 0.00 0.00 0.00 31 1015.4
20260906002339 -17 0.0 0.0 0.00 0.00 0.00 1015.1
20260906001839 -17 0.0 0.0 0.00 0.00 0.00 1014.9
20260906001338 -17 0.0 0.0 0.00 0.00 0.00 1015.0
20260905235336 -17 0.0 0.0 0.00 0.00 0.00 1014.9
20260905234823 -17 0.0 0.0 0.00 0.00 0.00 1015.2
20260905234324 -17 0.0 0.0 0.00 0.00 0.00 1015.1
20260905233820 -17 0.0 0.0 0.00 0.00 0.00 1015.2
20260905233320 -17 0.0 0.0 0.00 0.00 0.00 1015.0
20260905232820 -17 0.0 0.0 0.00 0.00 0.00 1015.1
20260905232307 -17 0.0 0.0 0.00 0.00 0.00 1014.9
20260905231809 -17 0.0 0.0 0.00 0.00 0.00 1014.9
20260905231308 -17 0.0 0.0 0.00 0.00 0.00 1014.6
20260905230808 -17 0.0 0.0 0.00 0.00 0.00 1014.6
20260905225755 -17 0.0 0.0 0.00 0.00 0.00 1014.5
20260905225234 -17 0.0 0.0 0.00 0.00 0.00 1014.8
20260905224735 35 106 6.4 6.4 0.00 0.00 0.00 26 1014.5
20260905224227 35 106 6.4 6.4 0.00 0.00 0.00 26 1014.5
20260905223727 35 106 6.4 6.4 0.00 0.00 0.00 26 1014.6
20260905223225 35 106 6.4 6.4 0.00 0.00 0.00 26 1014.4
20260905222224 -17 0.0 0.0 0.00 0.00 0.00 1014.5
20260905221708 -17 0.0 0.0 0.00 0.00 0.00 1014.6
20260905221208 -17 0.0 0.0 0.00 0.00 0.00 1015.0
20260905220633 -17 0.0 0.0 0.00 0.00 0.00 1014.5
20260905220134 -17 0.0 0.0 0.00 0.00 0.00 1014.9
20260905215134 -17 0.0 0.0 0.00 0.00 0.00 1014.9
20260905214635 -17 0.0 0.0 0.00 0.00 0.00 1015.1
20260905214133 -17 0.0 0.0 0.00 0.00 0.00 1015.3
20260905213633 -17 0.0 0.0 0.00 0.00 0.00 1015.3
20260905213132 -17 0.0 0.0 0.00 0.00 0.00 1015.4